[[{"header":{"parameterUnit":"m.s-1","parameterCategory":1,"la1":30.2991,"la2":30.254,"lo1":-89.0895,"lo2":-89.0444,"dy":0.0017,"dx":0.0017,"nx":28,"ny":28,"refTime":"2025-01-06T03:00:00:Z","depth":0,"parameterNumber":2,"parameterNumberName":"U-component_of_WINDS"},"data":[0,0,0,0,0,0,0,0,0,0,0,0,0,0,0,0,0,0,0,0,0,0,0,0,0,0,0,0,0,0,0,0,0,0,0,0,0,0,0,0,0,0,0,0,0,0,0,0,0,0,0,0,0,0,0,0,0,0,-1.7008,-1.7008,0,-1.6975,-1.6974,-1.6974,-1.6952,-1.6952,-1.6952,-1.6952,-1.6916,-1.6915,-1.6914,0,0,0,0,0,0,0,0,0,0,0,0,0,-1.7051,-1.705,-1.7008,-1.7008,-1.7007,-1.6975,-1.6974,-1.6974,-1.6952,-1.6952,-1.6952,-1.6952,-1.6916,-1.6915,-1.6914,0,0,0,0,0,0,0,0,0,0,0,0,0,-1.7026,-1.705,-1.7008,-1.6993,-1.6991,-1.6975,-1.6974,-1.6974,-1.6952,-1.6952,-1.6952,-1.6952,-1.6916,-1.6915,-1.6914,-1.691,0,0,-1.691,-1.6909,0,0,0,0,0,0,0,0,-1.7028,-1.7025,-1.6995,-1.6994,-1.6992,-1.6968,-1.6976,-1.6952,-1.6953,-1.6967,-1.6952,-1.6952,-1.6933,-1.693,-1.6924,-1.6908,-1.6907,-1.691,-1.6909,-1.6909,-1.6908,0,0,0,0,0,0,0,-1.7029,-1.7026,-1.6995,-1.6995,-1.6993,-1.6987,-1.6983,-1.6971,-1.6951,-1.6966,-1.6964,-1.6961,-1.6932,-1.6926,-1.6923,-1.6906,-1.691,-1.6909,-1.6908,-1.6907,-1.6884,-1.6884,0,0,0,0,0,0,-1.7034,-1.7028,-1.6996,-1.6994,-1.701,-1.6986,-1.6982,-1.6976,-1.6951,-1.6948,-1.6961,-1.696,-1.6928,-1.6925,-1.6922,-1.6915,-1.6909,-1.6907,-1.6907,-1.6884,-1.6884,-1.6884,0,0,0,0,0,0,-1.7035,-1.7031,-1.6997,-1.701,-1.7005,-1.6986,-1.6978,-1.6975,-1.6969,-1.6948,-1.6944,-1.6958,-1.6928,-1.6924,-1.6913,-1.6914,-1.6907,-1.6906,-1.6884,-1.6884,-1.6884,-1.6902,0,0,0,0,0,0,-1.7036,-1.7032,-1.7031,-1.701,-1.7005,-1.699,-1.6979,-1.6974,-1.6967,-1.6965,-1.6944,-1.6941,-1.6927,-1.6915,-1.6912,-1.6912,-1.6905,-1.6884,-1.6884,-1.6884,-1.6901,-1.6903,-1.6904,0,0,0,0,0,-1.7038,-1.7037,-1.7031,-1.7027,-1.7003,-1.699,-1.6986,-1.6972,-1.6967,-1.6965,-1.6952,-1.6941,-1.6914,-1.6914,-1.691,-1.691,-1.6883,-1.6884,-1.6884,-1.6901,-1.6903,-1.6904,0,0,0,0,0,0,-1.7057,-1.7034,-1.7027,-1.7019,-1.7007,-1.6986,-1.6983,-1.6974,-1.6962,-1.6961,-1.6942,-1.6938,-1.6929,-1.6918,-1.6918,-1.6905,-1.6898,-1.6897,-1.6912,-1.6913,-1.6915,-1.6917,-1.6904,0,0,0,0,0,-1.706,-1.7052,-1.7032,-1.7027,-1.7021,-1.7003,-1.6997,-1.6987,-1.6973,-1.6967,-1.6953,-1.6939,-1.6927,-1.692,-1.6908,-1.69,-1.6895,-1.6898,-1.6899,-1.6901,-1.69,-1.6895,-1.6896,-1.6885,-1.6885,-1.6885,0,0,-1.7067,-1.7053,-1.7049,-1.703,-1.7019,-1.701,-1.6999,-1.699,-1.6983,-1.6965,-1.6954,-1.6943,-1.6927,-1.6917,-1.6912,-1.6908,-1.6902,-1.6901,-1.6902,-1.6901,-1.6895,-1.6896,-1.6897,-1.6886,-1.6886,-1.6885,0,0,-1.7074,-1.7063,-1.7058,-1.7047,-1.7031,-1.7019,-1.7018,-1.6999,-1.6991,-1.698,-1.6966,-1.6957,-1.6938,-1.6926,-1.6918,-1.6921,-1.6911,-1.6918,-1.6925,-1.692,-1.692,-1.6921,-1.6921,-1.6922,-1.6917,-1.6917,-1.6917,0,-1.7084,-1.707,-1.7056,-1.7048,-1.704,-1.7024,-1.7018,-1.7008,-1.6989,-1.6983,-1.6979,-1.6954,-1.6942,-1.6929,-1.693,-1.6924,-1.6921,-1.6919,-1.6922,-1.6922,-1.6922,-1.6922,-1.6923,-1.6918,-1.6918,-1.6918,-1.6918,0,-1.7083,-1.7074,-1.7071,-1.7054,-1.7045,-1.7038,-1.7022,-1.7015,-1.7006,-1.6994,-1.6983,-1.6967,-1.6952,-1.6948,-1.6939,-1.6934,-1.6932,-1.6925,-1.6918,-1.6924,-1.6924,-1.6924,-1.692,-1.6919,-1.6919,-1.6919,0,0,-1.7101,-1.7075,-1.7074,-1.7066,-1.7047,-1.7039,-1.7031,-1.7017,-1.7011,-1.6998,-1.6991,-1.6975,-1.6968,-1.6958,-1.6947,-1.6943,-1.6946,-1.6936,-1.6936,-1.6938,-1.6939,-1.6944,-1.6944,-1.6939,-1.6939,-1.6939,-1.694,0,-1.7104,-1.709,-1.7077,-1.7066,-1.7057,-1.7043,-1.7036,-1.7023,-1.7012,-1.7002,-1.699,-1.6978,-1.6971,-1.6965,-1.696,-1.6946,-1.6945,-1.6946,-1.6931,-1.693,-1.6935,-1.6944,-1.6949,-1.6951,-1.694,-1.694,-1.694,0,-1.7107,-1.7095,-1.7085,-1.7066,-1.7062,-1.7056,-1.7042,-1.7033,-1.7018,-1.701,-1.7,-1.6988,-1.6978,-1.6973,-1.6958,-1.6959,-1.6952,-1.6944,-1.6944,-1.6941,-1.6935,-1.6941,-1.6951,-1.6951,-1.694,-1.694,-1.694,0,-1.712,-1.7102,-1.7093,-1.7086,-1.7065,-1.7061,-1.7051,-1.7036,-1.7029,-1.7016,-1.701,-1.6996,-1.6989,-1.6978,-1.6963,-1.696,-1.6949,-1.6943,-1.6942,-1.6942,-1.694,-1.694,-1.6948,-1.6936,-1.6936,-1.6936,-1.6936,0,-1.7125,-1.7119,-1.7098,-1.7093,-1.7085,-1.707,-1.7062,-1.7052,-1.7038,-1.703,-1.7016,-1.7008,-1.6989,-1.6979,-1.6967,-1.6957,-1.6953,-1.6946,-1.6943,-1.6947,-1.6948,-1.6941,-1.6941,-1.6937,-1.6937,-1.6937,-1.6936,0,-1.7138,-1.7124,-1.7113,-1.7094,-1.7089,-1.7084,-1.7068,-1.7061,-1.705,-1.7039,-1.7036,-1.7018,-1.7005,-1.6989,-1.6971,-1.6963,-1.6953,-1.6949,-1.6958,-1.6956,-1.6956,-1.6956,-1.696,-1.696,-1.6949,-1.6949,-1.695,0,-1.7142,-1.7137,-1.7117,-1.7111,-1.7103,-1.7093,-1.7085,-1.7069,-1.7061,-1.7044,-1.7039,-1.7026,-1.7014,-1.6994,-1.6979,-1.6965,-1.6959,-1.6962,-1.6957,-1.6961,-1.6958,-1.6959,-1.6958,-1.6963,-1.6963,-1.6963,-1.6963,0,-1.715,-1.7143,-1.7133,-1.712,-1.7111,-1.71,-1.7088,-1.7083,-1.7065,-1.7057,-1.7044,-1.7035,-1.7017,-1.7003,-1.6987,-1.6977,-1.6967,-1.6965,-1.6964,-1.6967,-1.6973,-1.6969,-1.6961,-1.6965,-1.6964,-1.6964,-1.6964,-1.6964,-1.7158,-1.7152,-1.7138,-1.7127,-1.7116,-1.7106,-1.7099,-1.7087,-1.7076,-1.706,-1.7052,-1.7039,-1.7024,-1.7001,-1.6992,-1.6981,-1.6977,-1.6976,-1.6975,-1.6975,-1.6976,-1.6976,-1.6978,-1.6978,-1.6978,-1.6978,-1.6978,0,-1.7164,-1.7155,-1.7144,-1.7129,-1.712,-1.7112,-1.7098,-1.7091,-1.708,-1.7067,-1.7056,-1.7041,-1.7028,-1.7012,-1.6997,-1.6991,-1.6986,-1.6988,-1.6988,-1.6985,-1.698,-1.6982,-1.6992,-1.6992,-1.6992,-1.6992,-1.6992,-1.6992,-1.7167,-1.7157,-1.7149,-1.7134,-1.7124,-1.7112,-1.7105,-1.7095,-1.7084,-1.7068,-1.7057,-1.7047,-1.7033,-1.7017,-1.7004,-1.7,-1.6995,-1.6998,-1.6992,-1.6987,-1.6986,-1.6985,-1.6986,-1.6997,-1.6997,-1.6998,-1.6998,-1.6998]},{"header":{"parameterUnit":"m.s-1","parameterCategory":1,"la1":30.2991,"la2":30.254,"lo1":-89.0895,"lo2":-89.0444,"dy":0.0017,"dx":0.0017,"nx":28,"ny":28,"refTime":"2025-01-06T03:00:00:Z","depth":0,"parameterNumber":3,"parameterNumberName":"V-component_of_WINDS"},"data":[0,0,0,0,0,0,0,0,0,0,0,0,0,0,0,0,0,0,0,0,0,0,0,0,0,0,0,0,0,0,0,0,0,0,0,0,0,0,0,0,0,0,0,0,0,0,0,0,0,0,0,0,0,0,0,0,0,0,6.4183,6.4184,0,6.4262,6.4263,6.4264,6.4274,6.4273,6.4272,6.4271,6.4348,6.4351,6.4354,0,0,0,0,0,0,0,0,0,0,0,0,0,6.4039,6.4042,6.4183,6.4184,6.4185,6.4262,6.4263,6.4264,6.4274,6.4273,6.4272,6.4271,6.4347,6.4351,6.4354,0,0,0,0,0,0,0,0,0,0,0,0,0,6.4108,6.4043,6.4182,6.4199,6.4201,6.4261,6.4263,6.4264,6.4274,6.4273,6.4272,6.4271,6.4346,6.435,6.4354,6.4402,0,0,6.4367,6.4369,0,0,0,0,0,0,0,0,6.4104,6.4113,6.4196,6.4198,6.4201,6.4257,6.424,6.431,6.4274,6.4246,6.4271,6.427,6.4318,6.4325,6.4342,6.4406,6.4409,6.4367,6.437,6.4372,6.4373,0,0,0,0,0,0,0,6.4099,6.411,6.4214,6.4197,6.42,6.4202,6.4211,6.4254,6.4287,6.4248,6.4249,6.4259,6.432,6.4338,6.4344,6.441,6.4367,6.4371,6.4373,6.4375,6.4522,6.4524,0,0,0,0,0,0,6.4092,6.4106,6.4211,6.4216,6.4149,6.4206,6.4215,6.424,6.4287,6.4293,6.426,6.4259,6.4332,6.4339,6.4347,6.441,6.4372,6.4376,6.4378,6.4521,6.4523,6.4524,0,0,0,0,0,0,6.4089,6.4101,6.4208,6.4162,6.4175,6.4209,6.4237,6.4242,6.426,6.4296,6.4302,6.4273,6.4331,6.4341,6.439,6.4412,6.4377,6.4381,6.4519,6.4521,6.4523,6.4533,0,0,0,0,0,0,6.4085,6.41,6.4119,6.4162,6.4178,6.425,6.4238,6.4244,6.4268,6.4268,6.4309,6.4315,6.4331,6.4384,6.4394,6.4417,6.4384,6.4517,6.452,6.4523,6.4531,6.4536,6.4539,0,0,0,0,0,6.4079,6.4116,6.412,6.4132,6.4202,6.4251,6.4261,6.4279,6.427,6.4289,6.4312,6.4314,6.4408,6.4389,6.44,6.4425,6.4516,6.4519,6.4523,6.4529,6.4535,6.4539,0,0,0,0,0,0,6.4072,6.4122,6.4126,6.4178,6.4211,6.4253,6.4278,6.4284,6.4318,6.4317,6.4337,6.4346,6.4396,6.4415,6.4392,6.4476,6.4461,6.4467,6.4462,6.4467,6.4471,6.4467,6.4388,0,0,0,0,0,6.4077,6.4114,6.4155,6.4197,6.4214,6.4243,6.4265,6.4277,6.4311,6.4325,6.4351,6.4384,6.4421,6.4445,6.4481,6.4534,6.4544,6.4557,6.4561,6.4564,6.4569,6.4602,6.4609,6.4535,6.4535,6.4535,0,0,6.4087,6.4119,6.414,6.4197,6.4223,6.4262,6.4254,6.4294,6.4323,6.433,6.438,6.4401,6.4438,6.449,6.4515,6.4508,6.4592,6.4568,6.457,6.4574,6.4606,6.4614,6.462,6.4537,6.4537,6.4536,0,0,6.4125,6.4152,6.4192,6.422,6.4261,6.4281,6.4291,6.4333,6.4348,6.4399,6.4406,6.444,6.4503,6.4531,6.4553,6.4606,6.461,6.4617,6.4638,6.4671,6.4677,6.4682,6.4704,6.4711,6.4621,6.4621,6.4621,0,6.4131,6.419,6.4211,6.4252,6.4278,6.4289,6.4331,6.4356,6.4406,6.4424,6.4416,6.4498,6.4524,6.4585,6.4598,6.4615,6.4628,6.4613,6.4674,6.468,6.4685,6.4707,6.4714,6.4622,6.4622,6.4622,6.4622,0,6.4198,6.4239,6.4266,6.4318,6.4347,6.4387,6.4415,6.4441,6.4451,6.4472,6.4525,6.4557,6.4601,6.4616,6.4625,6.468,6.4675,6.467,6.4656,6.4693,6.4714,6.4722,6.4623,6.4623,6.4623,6.4623,0,0,6.4232,6.4298,6.4308,6.4334,6.4382,6.4414,6.4456,6.4502,6.4526,6.4561,6.4598,6.4653,6.4651,6.4676,6.4688,6.4716,6.4761,6.4709,6.471,6.472,6.4827,6.4832,6.4841,6.4763,6.4764,6.4766,6.4825,0,6.4278,6.4356,6.4378,6.4443,6.4483,6.4496,6.4533,6.4567,6.4588,6.4625,6.4648,6.4688,6.468,6.4696,6.4724,6.4749,6.4783,6.4745,6.4799,6.4801,6.4792,6.4851,6.4856,6.491,6.4833,6.4834,6.4835,0,6.4341,6.4382,6.4452,6.45,6.4517,6.4551,6.4597,6.4631,6.4671,6.4684,6.4715,6.4726,6.4772,6.4754,6.4818,6.4792,6.4816,6.4832,6.4834,6.4842,6.4822,6.4863,6.4928,6.4937,6.4847,6.4846,6.4845,0,6.4364,6.4435,6.4488,6.4509,6.4564,6.4588,6.4612,6.4651,6.4679,6.4718,6.4737,6.478,6.4804,6.4838,6.4861,6.4845,6.4925,6.4908,6.4939,6.4938,6.4956,6.4955,6.5028,6.4967,6.4967,6.4966,6.4966,0,6.4414,6.4457,6.4499,6.4532,6.4582,6.4606,6.4655,6.4679,6.4714,6.4753,6.4764,6.48,6.4826,6.4866,6.4883,6.4936,6.4946,6.4959,6.4964,6.496,6.4959,6.4977,6.4975,6.4969,6.4968,6.4968,6.4967,0,6.4447,6.4477,6.4536,6.4585,6.4599,6.4634,6.4676,6.4709,6.4732,6.478,6.4793,6.4828,6.4876,6.4902,6.4959,6.4972,6.5032,6.5033,6.5019,6.5022,6.5053,6.5051,6.5143,6.5157,6.5083,6.5084,6.5084,0,6.4479,6.4513,6.4568,6.4596,6.4621,6.4664,6.4694,6.472,6.475,6.4801,6.4828,6.4876,6.4917,6.4992,6.5023,6.5068,6.5072,6.5101,6.5079,6.5075,6.5077,6.5076,6.5081,6.5106,6.5106,6.5107,6.5107,0,6.4532,6.4546,6.4589,6.4639,6.4674,6.4713,6.4752,6.4774,6.4806,6.484,6.489,6.4922,6.4984,6.5033,6.5082,6.5106,6.5113,6.5114,6.5125,6.5122,6.5114,6.5122,6.5033,6.5112,6.5112,6.5111,6.5111,6.5111,6.4568,6.4601,6.4646,6.4694,6.4727,6.4764,6.4799,6.4828,6.4871,6.4925,6.4937,6.4991,6.5033,6.51,6.5126,6.5169,6.5163,6.5177,6.5181,6.5185,6.5188,6.5106,6.5177,6.5177,6.5177,6.5177,6.5177,0,6.4625,6.4656,6.47,6.4756,6.4795,6.48,6.4844,6.4876,6.4924,6.4964,6.5005,6.5064,6.5113,6.5149,6.5199,6.5226,6.5231,6.5239,6.5238,6.5244,6.5188,6.5176,6.5234,6.5234,6.5234,6.5234,6.5234,6.5234,6.4659,6.4717,6.4737,6.4812,6.4842,6.4897,6.4922,6.4957,6.499,6.5056,6.5098,6.5122,6.5161,6.5214,6.526,6.5269,6.5288,6.5296,6.5306,6.5254,6.5248,6.5242,6.5231,6.5299,6.5299,6.5359,6.536,6.536]}]]